Vertical_Velocity
-6 -6 -9 -9 -4 -12 -3 -1 -4 -1 -2 -1 -1 0 2 2 3 -3 -3 -8 -7 -3 -1 2 -1 -2 -6
-2 -6 -2 -1 -5 -7 -2 -4 -5 -5 -3 -4 0 0 -1 2 1 1 1 -1 -3 -4 -2 0 -4 -3 2
-18 -4 -7 -5 -6 -4 -1 -10 -2 -5 0 2 -2 -2 -1 -0 -2 2 0 -1 3 -2 -9 -1 12 4 -2
-5 -6 -2 0 0 3 -15 3 -18 -1 1 1 -4 -2 -3 1 -2 -6 -4 2 -2 -3 0 -10 -3 -1 -7
-0 -4 -2 -2 2 -3 -4 -13 1 -8 -6 -2 -7 -1 -5 -7 -7 -6 -3 3 4 3 -0 -1 -3 0 4
10 5 -5 -2 3 7 -4 -1 -32 8 -13 -11 9 -13 -9 -5 -5 -1 2 1 2 4 2 1 -1 -2 -0
-2 2 -1 1 1 -5 2 11 -6 -6 3 -22 4 -8 -2 -8 1 19 9 2 -1 -1 1 -1 2 -2 2
8 -2 2 1 16 16 9 -3 -11 -2 6 0 -6 -9 -2 1 -3 5 0 12 -2 1 1 -0 -4 -3 -7
-0 0 -3 -4 2 8 -3 2 -15 -6 2 12 -11 -13 7 -8 -7 -2 4 10 8 4 5 -1 -5 -3 -5
-10 -6 2 -4 2 9 6 3 -0 -16 1 11 -5 13 -12 -9 -3 -4 -8 9 2 -1 1 4 0 9 -0
-7 -4 -3 -0 -3 -2 3 7 4 -2 -12 27 -0 2 16 -11 5 -3 10 2 -5 -6 3 3 -0 2 11
-5 -3 -3 -3 0 3 3 2 11 8 -6 7 4 19 16 -9 -9 -7 7 6 1 -2 -12 -1 -5 17 4
-2 -3 2 1 -1 -2 -3 1 2 -0 -2 4 13 5 18 -4 -0 -3 -8 4 9 2 -4 -8 8 -2 -36
-2 -2 -1 -1 -5 6 -3 -3 -3 -21 6 6 1 5 0 6 5 -5 11 5 3 -3 4 2 -4 -31 58
-1 -4 -1 -0 -2 0 -3 -2 5 -2 -9 -3 -1 7 1 1 2 -0 4 3 10 -4 -7 3 -9 22 16
-0 0 1 -0 -3 -5 3 5 -2 2 -4 1 -7 -16 -11 -3 8 8 17 10 0 11 -3 -7 -2 19 11
-0 -1 3 1 -0 -5 -2 2 -3 3 -1 6 -3 -3 -2 1 5 13 6 10 0 4 7 8 -10 7 -5
Height
1412 1406 1400 1395 1389 1385 1380 1374 1367 1363 1357 1352 1347 1342 1338 1335 1332 1330 1328 1325 1323 1323 1325 1328 1332 1336 1339
1406 1400 1396 1390 1383 1376 1371 1365 1358 1352 1347 1342 1338 1332 1327 1323 1319 1316 1313 1310 1309 1308 1310 1313 1317 1323 1327
1398 1396 1388 1384 1375 1369 1363 1356 1349 1343 1336 1330 1326 1320 1315 1310 1305 1301 1296 1293 1292 1291 1293 1296 1302 1307 1313
1398 1388 1384 1377 1371 1362 1352 1347 1337 1331 1324 1319 1314 1308 1303 1297 1291 1285 1279 1275 1273 1272 1275 1279 1284 1291 1298
1393 1383 1376 1370 1364 1357 1348 1336 1325 1323 1313 1307 1303 1293 1286 1280 1273 1266 1261 1258 1256 1257 1259 1264 1269 1275 1284
1387 1379 1369 1364 1356 1350 1342 1330 1312 1315 1306 1291 1292 1280 1273 1265 1256 1248 1244 1241 1240 1241 1244 1250 1256 1262 1268
1380 1373 1361 1356 1349 1341 1335 1326 1314 1303 1300 1281 1278 1267 1260 1250 1241 1232 1225 1221 1222 1225 1230 1236 1243 1249 1256
1374 1364 1357 1348 1344 1336 1328 1317 1304 1296 1294 1275 1267 1252 1243 1236 1229 1221 1213 1209 1206 1210 1217 1224 1231 1237 1245
1364 1357 1350 1342 1337 1329 1322 1312 1294 1286 1283 1272 1256 1241 1231 1221 1215 1208 1202 1195 1195 1200 1207 1214 1220 1228 1236
1354 1347 1340 1334 1330 1325 1317 1307 1296 1275 1274 1265 1246 1239 1220 1213 1206 1197 1190 1186 1190 1194 1198 1205 1211 1217 1226
1345 1339 1333 1328 1323 1317 1312 1305 1292 1279 1268 1260 1241 1229 1226 1205 1191 1188 1183 1180 1183 1186 1190 1194 1203 1210 1214
1342 1334 1327 1321 1316 1311 1305 1297 1289 1276 1261 1253 1236 1223 1217 1204 1191 1177 1172 1167 1173 1181 1187 1191 1195 1190 1203
1339 1331 1325 1318 1311 1305 1298 1289 1279 1268 1257 1246 1233 1211 1209 1200 1190 1177 1171 1170 1170 1179 1182 1188 1191 1192 1203
1337 1329 1322 1314 1308 1302 1293 1283 1272 1258 1251 1242 1226 1209 1199 1192 1186 1175 1171 1173 1179 1177 1182 1191 1191 1198 1193
1335 1327 1320 1313 1305 1299 1290 1281 1272 1257 1243 1233 1222 1210 1199 1189 1184 1179 1166 1174 1182 1185 1187 1190 1199 1199 1203
1334 1326 1319 1312 1303 1297 1290 1282 1270 1258 1245 1233 1220 1207 1199 1195 1182 1175 1177 1178 1187 1192 1197 1199 1207 1210 1214
1332 1325 1318 1311 1304 1297 1289 1280 1270 1260 1248 1236 1228 1219 1208 1203 1194 1187 1185 1184 1189 1194 1201 1207 1211 1221 1225